DW7807 Weather Reports


time (UTC)temp
C
wind
direction
speed
KPH
gust
KPH
rain 1hr
cm
rain 24hr
cm
rain mn
cm
humidity
%
barometer
mb
20260503200018 12 267 9.7 29.0 0.00 0.00 0.00 42 1018.7
20260503194517 12 317 9.7 17.7 0.00 0.00 0.00 39 1018.9
20260503193013 11 279 9.7 16.1 0.00 0.00 0.00 46 1019.1
20260503191527 11 325 11.3 20.9 0.00 0.00 0.00 43 1019.4
20260503190009 10 327 9.7 16.1 0.00 0.00 0.00 42 1019.7
20260503184509 11 281 6.4 19.3 0.00 0.00 0.00 42 1019.7
20260503183006 11 302 9.7 19.3 0.00 0.00 0.00 43 1019.9
20260503181507 10 302 11.3 22.5 0.00 0.00 0.00 45 1020.2
20260503180004 10 292 4.8 19.3 0.00 0.00 0.00 46 1020.1
20260503174502 10 226 8.0 22.5 0.00 0.00 0.00 48 1020.3
20260503173112 9 257 6.4 22.5 0.00 0.00 0.00 47 1020.4
20260503171557 9 309 6.4 17.7 0.00 0.00 0.00 47 1020.5
20260503170106 8 279 8.0 17.7 0.00 0.00 0.00 49 1020.7
20260503081543 0 319 0.0 0.0 0.00 0.00 0.00 84 1019.7
20260503071534 1 319 0.0 0.0 0.00 0.00 0.00 83 1018.9
20260503054536 2 319 0.0 0.0 0.00 0.00 0.00 81 1018.9
20260503053031 2 319 0.0 0.0 0.00 0.00 0.00 81 1018.9
20260503051526 2 319 0.0 0.0 0.00 0.00 0.00 81 1018.9
20260503050032 2 319 0.0 0.0 0.00 0.00 0.00 80 1018.8
20260503044524 2 319 0.0 0.0 0.00 0.00 0.00 80 1018.9
20260503043037 2 319 0.0 0.0 0.00 0.00 0.00 80 1019.0
20260503041524 2 319 0.0 0.0 0.00 0.00 0.00 80 1018.9
20260503040020 2 319 0.0 0.0 0.00 0.00 0.00 79 1018.9
20260503034520 2 319 0.0 0.0 0.00 0.00 0.00 79 1019.0
20260503033028 2 319 0.0 0.0 0.00 0.00 0.00 78 1018.9
20260503031519 2 319 0.0 4.8 0.00 0.00 0.00 78 1019.0
20260503030018 2 319 0.0 4.8 0.00 0.00 0.00 77 1019.0
20260503024525 2 319 3.2 6.4 0.00 0.00 0.00 76 1018.9
20260503023018 2 319 3.2 8.0 0.00 0.00 0.00 75 1019.0
20260503021536 2 319 4.8 9.7 0.00 0.00 0.00 75 1019.0
20260503020016 3 319 8.0 16.1 0.00 0.00 0.00 75 1018.9
20260503014515 3 337 8.0 16.1 0.00 0.00 0.00 77 1019.0
20260503013015 3 331 4.8 12.9 0.00 0.00 0.00 76 1018.9
20260503011515 3 331 3.2 12.9 0.00 0.00 0.00 75 1018.8
20260503010012 3 321 6.4 12.9 0.00 0.00 0.00 74 1018.6
20260503004510 3 341 6.4 22.5 0.00 0.03 0.00 73 1018.4
20260503003013 4 325 4.8 20.9 0.00 0.03 0.00 73 1018.1
20260503001509 4 327 8.0 19.3 0.00 0.03 0.00 71 1017.9
20260503000010 5 334 9.7 19.3 0.00 0.03 0.00 70 1017.7
20260502234507 5 12 6.4 19.3 0.00 0.03 0.00 69 1017.6
20260502233007 6 360 6.4 19.3 0.00 0.03 0.00 66 1017.5
20260502231513 6 321 9.7 19.3 0.00 0.03 0.00 62 1017.2
20260502230006 6 322 6.4 19.3 0.00 0.03 0.00 59 1017.0
20260502224504 6 321 4.8 17.7 0.00 0.05 0.00 57 1016.9
20260502223004 7 350 11.3 19.3 0.00 0.05 0.00 55 1016.8
20260502221503 7 295 9.7 17.7 0.00 0.05 0.00 54 1016.6
20260502220003 7 310 6.4 20.9 0.00 0.05 0.00 54 1016.5
20260502214501 7 5 4.8 17.7 0.00 0.05 0.00 55 1016.3
20260502213003 7 311 8.0 24.1 0.00 0.05 0.00 51 1016.3
20260502211502 7 310 6.4 14.5 0.00 0.05 0.00 51 1016.1
20260502210100 7 321 8.0 19.3 0.00 0.05 0.00 52 1016.2
20260502204606 7 325 9.7 19.3 0.00 0.05 0.00 51 1016.0
20260502203104 8 280 9.7 22.5 0.00 0.05 0.00 51 1016.1
20260502201557 7 265 9.7 19.3 0.00 0.05 0.00 51 1016.2